EW0158 Weather Reports


Display with metric or nautical units.
time (UTC)temp
F
wind
direction
speed
MPH
gust
MPH
rain 1hr
in
rain 24hr
in
rain mn
in
humidity
%
barometer
mb
20260901135016 74 157 3.0 6.0 0.00 0.00 0.00 83 1019.0
20260901133016 73 157 3.0 7.0 0.00 0.00 0.00 88 1018.8
20260901132016 72 157 3.0 7.0 0.00 0.00 0.00 89 1018.8
20260901131017 72 135 2.0 5.0 0.00 0.00 0.00 90 1018.8
20260901130016 71 157 2.0 4.0 0.00 0.00 0.00 90 1018.6
20260901125016 71 157 3.0 5.0 0.00 0.00 0.00 90 1018.4
20260901124017 71 180 3.0 5.0 0.00 0.00 0.00 90 1018.3
20260901123017 71 180 2.0 5.0 0.00 0.00 0.00 90 1018.5
20260901122017 70 180 3.0 6.0 0.00 0.00 0.00 90 1018.5
20260901120016 70 180 2.0 5.0 0.00 0.00 0.00 89 1018.2
20260901115016 71 180 3.0 6.0 0.00 0.00 0.00 89 1018.2
20260901114117 71 180 3.0 9.0 0.00 0.00 0.00 88 1018.3
20260901113117 71 180 4.0 7.0 0.00 0.00 0.00 88 1018.4
20260901112017 71 180 4.0 9.0 0.00 0.00 0.00 87 1018.5
20260901111017 71 180 6.0 10.0 0.00 0.00 0.00 87 1018.7
20260901110016 72 202 6.0 11.0 0.00 0.00 0.00 86 1018.7
20260901105017 72 180 7.0 11.0 0.00 0.00 0.00 86 1018.7
20260901104017 72 180 7.0 13.0 0.00 0.00 0.00 85 1018.7
20260901102117 72 180 8.0 14.0 0.00 0.00 0.00 84 1018.6
20260901101017 72 180 7.0 11.0 0.00 0.00 0.00 83 1018.6
20260901100017 72 180 6.0 11.0 0.00 0.00 0.00 82 1018.5
20260901095017 73 180 6.0 10.0 0.00 0.00 0.00 82 1018.9
20260901094017 73 180 6.0 12.0 0.00 0.00 0.00 81 1018.8
20260901093017 73 180 6.0 11.0 0.00 0.00 0.00 81 1018.9
20260901092017 73 180 5.0 9.0 0.00 0.00 0.00 80 1018.8
20260901091017 73 180 4.0 7.0 0.00 0.00 0.00 79 1019.0
20260901085016 73 180 5.0 11.0 0.00 0.00 0.00 78 1018.7
20260901084017 74 180 5.0 10.0 0.00 0.00 0.00 77 1018.7
20260901083017 74 180 5.0 9.0 0.00 0.00 0.00 76 1018.7
20260901082017 74 180 5.0 11.0 0.00 0.00 0.00 75 1018.7
20260901081017 74 180 4.0 9.0 0.00 0.00 0.00 74 1018.6
20260901075017 75 157 4.0 8.0 0.00 0.00 0.00 73 1018.5
20260901074017 75 157 3.0 5.0 0.00 0.00 0.00 73 1018.9
20260901073017 75 157 3.0 6.0 0.00 0.00 0.00 72 1019.0
20260901072017 76 157 4.0 6.0 0.00 0.00 0.00 71 1018.8
20260901071017 76 180 4.0 6.0 0.00 0.00 0.00 71 1018.9
20260901070017 76 157 3.0 7.0 0.00 0.00 0.00 70 1019.1
20260901065017 77 180 4.0 7.0 0.00 0.00 0.00 69 1019.0
20260901064017 77 180 6.0 10.0 0.00 0.00 0.00 69 1019.0
20260901063017 77 180 6.0 11.0 0.00 0.00 0.00 68 1018.9
20260901062017 77 180 5.0 12.0 0.00 0.00 0.00 68 1018.7
20260901061017 77 180 6.0 12.0 0.00 0.00 0.00 68 1018.6
20260901055117 78 180 6.0 11.0 0.00 0.00 0.00 66 1018.6
20260901054017 78 180 5.0 13.0 0.00 0.00 0.00 66 1018.4
20260901053017 78 157 5.0 9.0 0.00 0.00 0.00 65 1018.1
20260901052017 79 157 4.0 10.0 0.00 0.00 0.00 64 1018.1
20260901051015 79 157 4.0 9.0 0.00 0.00 0.00 63 1017.9
20260901050017 79 180 4.0 9.0 0.00 0.00 0.00 63 1017.9
20260901045017 79 157 4.0 10.0 0.00 0.00 0.00 62 1017.9
20260901044017 79 157 5.0 8.0 0.00 0.00 0.00 61 1017.9
20260901043117 79 157 4.0 9.0 0.00 0.00 0.00 61 1017.8
20260901042017 78 135 3.0 7.0 0.00 0.00 0.00 60 1017.7
20260901041016 79 135 3.0 7.0 0.00 0.00 0.00 59 1017.7
20260901035017 79 135 3.0 6.0 0.00 0.00 0.00 58 1017.4
20260901034117 79 112 2.0 5.0 0.00 0.00 0.00 58 1017.4
20260901033016 79 135 2.0 3.0 0.00 0.00 0.00 58 1017.5
20260901032017 79 135 2.0 3.0 0.00 0.00 0.00 58 1017.1
20260901031017 80 135 2.0 3.0 0.00 0.00 0.00 57 1017.0
20260901030118 80 135 2.0 4.0 0.00 0.00 0.00 56 1017.0
20260901025016 80 135 1.0 4.0 0.00 0.00 0.00 56 1017.0
20260901024017 80 135 2.0 3.0 0.00 0.00 0.00 55 1016.7
20260901023019 81 135 2.0 3.0 0.00 0.00 0.00 55 1016.7
20260901022017 82 135 2.0 4.0 0.00 0.00 0.00 53 1016.5
20260901021017 82 112 3.0 7.0 0.00 0.00 0.00 53 1016.4
20260901020019 82 135 2.0 5.0 0.00 0.00 0.00 52 1015.9
20260901015017 82 135 2.0 4.0 0.00 0.00 0.00 51 1015.9
20260901014019 83 135 2.0 3.0 0.00 0.00 0.00 49 1016.0
20260901013017 84 135 3.0 5.0 0.00 0.00 0.00 49 1015.8
20260901012016 85 135 3.0 5.0 0.00 0.00 0.00 48 1016.0
20260901011017 85 135 3.0 7.0 0.00 0.00 0.00 47 1015.9
20260901010017 86 135 3.0 5.0 0.00 0.00 0.00 46 1015.9
20260901005017 87 135 3.0 6.0 0.00 0.00 0.00 45 1015.9
20260901004024 88 135 4.0 11.0 0.00 0.00 0.00 44 1015.9
20260901003019 88 135 4.0 7.0 0.00 0.00 0.00 44 1015.7
20260901002017 89 157 5.0 10.0 0.00 0.00 0.00 43 1015.7
20260901001019 89 157 5.0 10.0 0.00 0.00 0.00 43 1015.7
20260831235017 90 157 5.0 14.0 0.00 0.00 0.00 43 1015.5
20260831234017 91 135 5.0 11.0 0.00 0.00 0.00 42 1015.6
20260831233019 90 135 5.0 10.0 0.00 0.00 0.00 43 1015.5
20260831232019 90 112 8.0 14.0 0.00 0.00 0.00 42 1015.6
20260831231019 92 135 8.0 17.0 0.00 0.00 0.00 41 1015.8
20260831230015 93 112 8.0 15.0 0.00 0.00 0.00 40 1015.7
20260831225019 93 135 7.0 13.0 0.00 0.00 0.00 40 1015.8
20260831224015 94 157 6.0 14.0 0.00 0.00 0.00 39 1015.9
20260831223017 94 157 5.0 11.0 0.00 0.00 0.00 38 1015.9
20260831222017 93 180 7.0 12.0 0.00 0.00 0.00 39 1015.9
20260831220018 93 180 7.0 12.0 0.00 0.00 0.00 40 1016.0
20260831215017 94 180 8.0 16.0 0.00 0.00 0.00 38 1016.2
20260831214017 94 112 7.0 14.0 0.00 0.00 0.00 38 1016.3
20260831213015 94 180 7.0 15.0 0.00 0.00 0.00 39 1016.4
20260831212017 94 180 5.0 9.0 0.00 0.00 0.00 38 1016.5
20260831211017 94 112 8.0 13.0 0.00 0.00 0.00 37 1016.9
20260831210017 93 112 5.0 13.0 0.00 0.00 0.00 38 1016.8
20260831205118 93 157 5.0 10.0 0.00 0.00 0.00 38 1017.1
20260831204017 93 112 6.0 13.0 0.00 0.00 0.00 38 1017.2
20260831203019 93 112 7.0 14.0 0.00 0.00 0.00 39 1017.4
20260831202015 94 135 4.0 10.0 0.00 0.00 0.00 40 1017.7
20260831201019 94 112 6.0 11.0 0.00 0.00 0.00 42 1017.8
20260831200017 93 180 6.0 13.0 0.00 0.00 0.00 44 1017.9
20260831195115 91 157 8.0 18.0 0.00 0.00 0.00 44 1018.1
20260831194015 92 157 5.0 11.0 0.00 0.00 0.00 44 1018.2
20260831193015 93 157 6.0 15.0 0.00 0.00 0.00 46 1018.3
20260831192015 91 135 7.0 13.0 0.00 0.00 0.00 47 1018.4
20260831191017 91 135 7.0 13.0 0.00 0.00 0.00 47 1018.5
20260831190016 92 112 5.0 10.0 0.00 0.00 0.00 44 1018.6
20260831185015 91 180 4.0 14.0 0.00 0.00 0.00 46 1018.4
20260831184017 90 135 4.0 7.0 0.00 0.00 0.00 47 1018.8
20260831183116 90 112 6.0 13.0 0.00 0.00 0.00 47 1018.9
20260831182015 91 90 6.0 12.0 0.00 0.00 0.00 47 1019.0
20260831181017 90 135 4.0 10.0 0.00 0.00 0.00 46 1019.1
20260831180015 91 180 5.0 10.0 0.00 0.00 0.00 49 1019.2
20260831175015 90 180 6.0 12.0 0.00 0.00 0.00 49 1019.3
20260831174017 90 202 6.0 12.0 0.00 0.00 0.00 47 1019.4
20260831173015 89 180 4.0 10.0 0.00 0.00 0.00 53 1019.4
20260831172017 88 202 6.0 11.0 0.00 0.00 0.00 51 1019.5
20260831171015 89 202 8.0 15.0 0.00 0.00 0.00 51 1019.7
20260831170015 88 180 7.0 13.0 0.00 0.00 0.00 52 1019.6
20260831165015 87 157 6.0 13.0 0.00 0.00 0.00 54 1019.7
20260831164015 86 180 7.0 13.0 0.00 0.00 0.00 54 1019.6
20260831163015 86 180 7.0 14.0 0.00 0.00 0.00 56 1019.6
20260831162015 86 202 8.0 14.0 0.00 0.00 0.00 55 1019.6
20260831161015 85 180 6.0 11.0 0.00 0.00 0.00 56 1019.2
20260831160020 85 202 11.0 16.0 0.00 0.00 0.00 57 1019.2
20260831155020 84 202 9.0 16.0 0.00 0.00 0.00 57 1019.0
20260831154015 83 202 9.0 16.0 0.00 0.00 0.00 59 1018.8
20260831153018 83 202 7.0 13.0 0.00 0.00 0.00 62 1018.8
20260831152015 82 180 9.0 16.0 0.00 0.00 0.00 63 1018.7
20260831151015 81 180 8.0 13.0 0.00 0.00 0.00 67 1018.6
20260831150015 80 180 6.0 11.0 0.00 0.00 0.00 67 1018.6
20260831145015 79 202 11.0 17.0 0.00 0.00 0.00 70 1018.5
20260831144015 79 180 9.0 18.0 0.00 0.00 0.00 73 1018.3
20260831143015 77 180 10.0 15.0 0.00 0.00 0.00 76 1018.4
20260831142015 76 180 8.0 12.0 0.00 0.00 0.00 79 1018.2
20260831141015 76 180 10.0 17.0 0.00 0.00 0.00 80 1018.2